Weather History for Mosby, MO

Change the Weather History Date:

Wednesday, October 2, 2013

  Actual Average (KMKC) Record (KMKC)
Temperature  
Mean Temperature 70 °F -  
Max Temperature 82 °F 71 °F 93 °F (2006)
Min Temperature 57 °F 50 °F 36 °F (2004)
Cooling Degree Days 4    
Growing Degree Days 20 (Base 50)    
Moisture  
Dew Point 64 °F    
Average Humidity 87    
Maximum Humidity 100    
Minimum Humidity 54    
Precipitation  
Precipitation 0.00 in - - ()
Sea Level Pressure  
Sea Level Pressure 29.96 in    
Wind  
Wind Speed 2 mph (SSE)    
Max Wind Speed 10 mph    
Max Gust Speed -    
Visibility 8 miles    
Events      
Averages and records for this station are not official NWS values.
T = Trace of Precipitation, MM = Missing Value Source: NWS Daily Summary

Daily Weather History Graph

Daily Weather History Graph

Search for Another Location

Airport:

Trip Planner

Search our weather history database for the weather conditions in past years. The results will help you decide how hot, cold, wet, or windy it might be!

Date:

Astronomy

Oct. 02, 2013 Rise Set
Actual Time 7:14 AM CDT 6:57 PM CDT
Civil Twilight 6:47 AM CDT 7:24 PM CDT
Nautical Twilight 6:16 AM CDT 7:55 PM CDT
Astronomical Twilight 5:45 AM CDT 8:26 PM CDT
Moon 4:49 AM CDT (10/2) 5:33 PM CDT (10/2)
Length of Visible Light 12h 36m
Length of Day
11h 43m
Waning Crescent, 6% of the Moon is Illuminated
Oct 2
Waning Crescent
Oct 4
New
Oct 11
First Quarter
Oct 18
Full
Oct 26
Last Quarter

Hourly Weather History & Observations

Time (CDT) Temp. Heat Index Dew Point Humidity Pressure Visibility Wind Dir Wind Speed Gust Speed Precip Events Conditions
12:15 AM 60.8 °F - 60.8 °F 100% 29.98 in 5.0 mi Calm Calm - N/A   Clear
12:35 AM 60.8 °F - 60.8 °F 100% 29.98 in 7.0 mi Calm Calm - N/A   Clear
12:55 AM 60.8 °F - 60.8 °F 100% 29.98 in 3.0 mi Calm Calm - N/A   Clear
1:15 AM 60.8 °F - 60.8 °F 100% 29.98 in 7.0 mi Calm Calm - N/A   Clear
1:35 AM 59.0 °F - 59.0 °F 100% 29.98 in 7.0 mi Calm Calm - N/A   Clear
1:55 AM 59.0 °F - 59.0 °F 100% 29.99 in 7.0 mi Calm Calm - N/A   Clear
2:15 AM 59.0 °F - 59.0 °F 100% 29.99 in 7.0 mi Calm Calm - N/A   Clear
2:35 AM 59.0 °F - 59.0 °F 100% 29.99 in 5.0 mi Calm Calm - N/A   Clear
2:55 AM 59.0 °F - 59.0 °F 100% 29.99 in 7.0 mi Calm Calm - N/A   Clear
3:15 AM 59.0 °F - 59.0 °F 100% 29.99 in 10.0 mi Calm Calm - N/A   Scattered Clouds
3:35 AM 59.0 °F - 59.0 °F 100% 29.99 in 7.0 mi Calm Calm - N/A   Mostly Cloudy
3:55 AM 59.0 °F - 59.0 °F 100% 29.99 in 7.0 mi Calm Calm - N/A   Mostly Cloudy
4:15 AM 59.0 °F - 59.0 °F 100% 29.99 in 7.0 mi Calm Calm - N/A   Scattered Clouds
4:35 AM 59.0 °F - 59.0 °F 100% 29.99 in 7.0 mi Calm Calm - N/A   Scattered Clouds
4:55 AM 59.0 °F - 59.0 °F 100% 29.99 in 7.0 mi Calm Calm - N/A   Scattered Clouds
5:15 AM 59.0 °F - 59.0 °F 100% 29.99 in 7.0 mi Calm Calm - N/A   Scattered Clouds
5:35 AM 59.0 °F - 59.0 °F 100% 29.99 in 7.0 mi Calm Calm - N/A   Scattered Clouds
5:55 AM 59.0 °F - 59.0 °F 100% 29.99 in 10.0 mi Calm Calm - N/A   Clear
6:15 AM 59.0 °F - 59.0 °F 100% 29.99 in 10.0 mi Calm Calm - N/A   Clear
6:35 AM 59.0 °F - 59.0 °F 100% 30.00 in 7.0 mi Calm Calm - N/A   Clear
6:55 AM 59.0 °F - 59.0 °F 100% 30.01 in 10.0 mi Calm Calm - N/A   Clear
7:15 AM 57.2 °F - 57.2 °F 100% 30.01 in 7.0 mi Calm Calm - N/A   Clear
7:35 AM 59.0 °F - 59.0 °F 100% 30.01 in 7.0 mi Calm Calm - N/A   Clear
7:55 AM 59.0 °F - 59.0 °F 100% 30.01 in 7.0 mi Calm Calm - N/A   Clear
8:15 AM 59.0 °F - 59.0 °F 100% 30.01 in 7.0 mi Calm Calm - N/A   Scattered Clouds
8:35 AM 62.6 °F - 62.6 °F 100% 30.01 in 5.0 mi Calm Calm - N/A   Clear
8:55 AM 64.4 °F - 62.6 °F 94% 30.02 in 7.0 mi SE 3.5 mph - N/A   Clear
9:15 AM 64.4 °F - 64.4 °F 100% 30.02 in 7.0 mi Calm Calm - N/A   Scattered Clouds
9:35 AM 66.2 °F - 66.2 °F 100% 30.02 in 7.0 mi Calm Calm - N/A   Mostly Cloudy
9:55 AM 68.0 °F - 68.0 °F 100% 30.02 in 7.0 mi Calm Calm - N/A   Overcast
10:15 AM 71.6 °F - 69.8 °F 94% 30.02 in 7.0 mi South 4.6 mph - N/A   Overcast
10:35 AM 71.6 °F - 69.8 °F 94% 30.02 in 7.0 mi South 8.1 mph - N/A   Overcast
10:55 AM 71.6 °F - 69.8 °F 94% 30.02 in 7.0 mi South 8.1 mph - N/A   Overcast
11:15 AM 71.6 °F - 69.8 °F 94% 30.02 in 7.0 mi South 5.8 mph - N/A   Overcast
11:35 AM 73.4 °F - 69.8 °F 88% 30.02 in 7.0 mi South 6.9 mph - N/A   Overcast
11:55 AM 73.4 °F - 69.8 °F 88% 30.01 in 7.0 mi South 9.2 mph - N/A   Overcast
12:15 PM 73.4 °F - 69.8 °F 88% 30.01 in 10.0 mi SSW 6.9 mph - N/A   Overcast
12:35 PM 73.4 °F - 69.8 °F 88% 30.01 in 7.0 mi SSE 5.8 mph - N/A   Overcast
12:55 PM 73.4 °F - 69.8 °F 88% 30.00 in 7.0 mi SE 4.6 mph - N/A   Overcast
1:15 PM 75.2 °F - 68.0 °F 78% 29.99 in 10.0 mi South 5.8 mph - N/A   Overcast
1:35 PM 77.0 °F - 68.0 °F 74% 29.98 in 10.0 mi SSW 4.6 mph - N/A   Mostly Cloudy
1:55 PM 78.8 °F - 68.0 °F 69% 29.96 in 10.0 mi SE 6.9 mph - N/A   Scattered Clouds
2:15 PM 78.8 °F - 68.0 °F 69% 29.94 in 10.0 mi SE 4.6 mph - N/A   Clear
2:35 PM 80.6 °F 82.3 °F 64.4 °F 58% 29.93 in 10.0 mi SE 5.8 mph - N/A   Scattered Clouds
2:55 PM 80.6 °F 82.3 °F 64.4 °F 58% 29.92 in 10.0 mi SSE 3.5 mph - N/A   Scattered Clouds
3:15 PM 82.4 °F 83.9 °F 64.4 °F 54% 29.92 in 10.0 mi SE 5.8 mph - N/A   Scattered Clouds
3:35 PM 82.4 °F 83.9 °F 64.4 °F 54% 29.91 in 10.0 mi SSE 5.8 mph - N/A   Mostly Cloudy
3:55 PM 82.4 °F 83.9 °F 64.4 °F 54% 29.90 in 10.0 mi SSE 5.8 mph - N/A   Unknown
4:15 PM 82.4 °F 83.9 °F 64.4 °F 54% 29.90 in 10.0 mi SE 6.9 mph - N/A   Scattered Clouds
4:35 PM 82.4 °F 83.9 °F 64.4 °F 54% 29.89 in 10.0 mi Calm Calm - N/A   Scattered Clouds
4:55 PM 82.4 °F 83.9 °F 64.4 °F 54% 29.89 in 10.0 mi SSE 4.6 mph - N/A   Scattered Clouds
5:15 PM 82.4 °F 83.9 °F 64.4 °F 54% 29.89 in 10.0 mi SSE 5.8 mph - N/A   Mostly Cloudy
5:35 PM 82.4 °F 84.6 °F 66.2 °F 58% 29.89 in 10.0 mi SE 5.8 mph - N/A   Mostly Cloudy
5:55 PM 80.6 °F 82.7 °F 66.2 °F 61% 29.89 in 10.0 mi SE 5.8 mph - N/A   Scattered Clouds
6:15 PM 80.6 °F 82.7 °F 66.2 °F 61% 29.89 in 10.0 mi SE 4.6 mph - N/A   Scattered Clouds
6:35 PM 80.6 °F 83.2 °F 68.0 °F 65% 29.89 in 10.0 mi SE 3.5 mph - N/A   Mostly Cloudy
6:55 PM 78.8 °F - 68.0 °F 69% 29.89 in 10.0 mi SE 10.4 mph - N/A   Unknown
7:15 PM 77.0 °F - 68.0 °F 74% 29.89 in 10.0 mi SE 5.8 mph - N/A   Scattered Clouds
7:35 PM 75.2 °F - 68.0 °F 78% 29.89 in 10.0 mi ESE 6.9 mph - N/A   Clear
7:55 PM 73.4 °F - 68.0 °F 83% 29.89 in 10.0 mi SE 5.8 mph - N/A   Clear
8:15 PM 71.6 °F - 68.0 °F 88% 29.89 in 10.0 mi SE 5.8 mph - N/A   Clear
8:35 PM 71.6 °F - 68.0 °F 88% 29.90 in 10.0 mi ESE 4.6 mph - N/A   Clear
8:55 PM 71.6 °F - 66.2 °F 83% 29.90 in 10.0 mi ESE 4.6 mph - N/A   Clear
9:15 PM 69.8 °F - 66.2 °F 88% 29.91 in 10.0 mi ESE 4.6 mph - N/A   Clear
9:35 PM 69.8 °F - 66.2 °F 88% 29.91 in 10.0 mi Calm Calm - N/A   Clear
9:55 PM 69.8 °F - 66.2 °F 88% 29.91 in 10.0 mi Calm Calm - N/A   Clear
10:15 PM 69.8 °F - 68.0 °F 94% 29.91 in 10.0 mi Calm Calm - N/A   Clear
10:35 PM 68.0 °F - 68.0 °F 100% 29.90 in 10.0 mi Calm Calm - N/A   Clear
10:55 PM 68.0 °F - 68.0 °F 100% 29.90 in 10.0 mi Calm Calm - N/A   Clear
11:15 PM 68.0 °F - 68.0 °F 100% 29.90 in 10.0 mi Calm Calm - N/A   Clear
11:35 PM 68.0 °F - 68.0 °F 100% 29.90 in 10.0 mi Calm Calm - N/A   Clear
11:55 PM 68.0 °F - 68.0 °F 100% 29.90 in 10.0 mi Calm Calm - N/A   Clear